| time (UTC) | temp C | wind direction | speed KPH | gust KPH | rain 1hr cm | rain 24hr cm | rain mn cm | humidity % | barometer mb |
| 20260507123105 | 16 | 341 | 0.0 | 6.4 | 0.00 | 0.00 | 0.00 | 50 | 1015.3 |
| 20260507121600 | 16 | 0 | 0.0 | 9.7 | 0.00 | 0.00 | 0.00 | 50 | 1015.3 |
| 20260507120052 | 16 | 76 | 3.2 | 9.7 | 0.00 | 0.00 | 0.00 | 51 | 1015.3 |
| 20260507114556 | 16 | 283 | 0.0 | 9.7 | 0.00 | 0.00 | 0.00 | 46 | 1015.4 |
| 20260507113051 | 16 | 292 | 1.6 | 9.7 | 0.00 | 0.00 | 0.00 | 50 | 1015.4 |
| 20260507111553 | 16 | 26 | 1.6 | 9.7 | 0.00 | 0.00 | 0.00 | 54 | 1015.6 |
| 20260507110049 | 15 | 339 | 3.2 | 6.4 | 0.00 | 0.00 | 0.00 | 55 | 1015.6 |
| 20260507104554 | 16 | 14 | 0.0 | 11.3 | 0.00 | 0.00 | 0.00 | 54 | 1015.7 |
| 20260507103047 | 15 | 0 | 1.6 | 6.4 | 0.00 | 0.00 | 0.00 | 55 | 1015.7 |
| 20260507101558 | 15 | 360 | 3.2 | 8.0 | 0.00 | 0.00 | 0.00 | 60 | 1015.7 |
| 20260507094552 | 14 | 0 | 1.6 | 6.4 | 0.00 | 0.00 | 0.00 | 63 | 1015.7 |
| 20260507093057 | 14 | 0 | 1.6 | 9.7 | 0.00 | 0.00 | 0.00 | 67 | 1015.8 |
| 20260507091557 | 13 | 355 | 1.6 | 6.4 | 0.00 | 0.00 | 0.00 | 69 | 1015.7 |
| 20260507090050 | 12 | 293 | 0.0 | 4.8 | 0.00 | 0.00 | 0.00 | 73 | 1015.6 |
| 20260507084558 | 12 | 26 | 0.0 | 3.2 | 0.00 | 0.00 | 0.00 | 76 | 1015.5 |
| 20260507083103 | 11 | 0 | 0.0 | 3.2 | 0.00 | 0.00 | 0.00 | 77 | 1015.6 |
| 20260507081600 | 11 | 0 | 0.0 | 3.2 | 0.00 | 0.00 | 0.00 | 78 | 1015.5 |
| 20260507080050 | 11 | 0 | 0.0 | 4.8 | 0.00 | 0.00 | 0.00 | 80 | 1015.5 |
| 20260507074608 | 11 | 0 | 0.0 | 3.2 | 0.00 | 0.00 | 0.00 | 80 | 1015.5 |
| 20260507073059 | 10 | 0 | 0.0 | 3.2 | 0.00 | 0.00 | 0.00 | 83 | 1015.5 |
| 20260507071556 | 10 | 277 | 0.0 | 3.2 | 0.00 | 0.00 | 0.00 | 85 | 1015.4 |
| 20260507070047 | 10 | 0 | 1.6 | 4.8 | 0.00 | 0.00 | 0.00 | 86 | 1015.3 |
| 20260507064546 | 9 | 0 | 0.0 | 3.2 | 0.00 | 0.00 | 0.00 | 88 | 1015.2 |
| 20260507063053 | 8 | 273 | 0.0 | 4.8 | 0.00 | 0.00 | 0.00 | 89 | 1015.1 |
| 20260507061549 | 8 | 277 | 1.6 | 4.8 | 0.00 | 0.00 | 0.00 | 89 | 1015.1 |
| 20260507060057 | 8 | 296 | 0.0 | 4.8 | 0.00 | 0.00 | 0.00 | 89 | 1014.9 |
| 20260507054550 | 8 | 0 | 0.0 | 3.2 | 0.00 | 0.00 | 0.00 | 90 | 1014.9 |
| 20260507053048 | 8 | 293 | 1.6 | 6.4 | 0.00 | 0.00 | 0.00 | 90 | 1014.8 |
| 20260507051550 | 8 | 279 | 0.0 | 4.8 | 0.00 | 0.00 | 0.00 | 89 | 1014.7 |
| 20260507050050 | 8 | 0 | 1.6 | 4.8 | 0.00 | 0.00 | 0.00 | 89 | 1014.5 |
| 20260507044549 | 8 | 287 | 0.0 | 3.2 | 0.00 | 0.00 | 0.00 | 89 | 1014.3 |
| 20260507043049 | 8 | 296 | 0.0 | 3.2 | 0.00 | 0.00 | 0.00 | 89 | 1014.2 |
| 20260507041550 | 8 | 282 | 0.0 | 3.2 | 0.00 | 0.00 | 0.00 | 89 | 1014.1 |
| 20260507040046 | 8 | 0 | 0.0 | 1.6 | 0.00 | 0.00 | 0.00 | 89 | 1014.1 |
| 20260507034551 | 8 | 289 | 0.0 | 3.2 | 0.00 | 0.03 | 0.00 | 89 | 1014.0 |
| 20260507033049 | 8 | 0 | 0.0 | 3.2 | 0.00 | 0.03 | 0.00 | 89 | 1014.0 |
| 20260507031552 | 8 | 286 | 0.0 | 3.2 | 0.00 | 0.03 | 0.00 | 89 | 1014.0 |
| 20260507030054 | 8 | 0 | 0.0 | 3.2 | 0.00 | 0.03 | 0.00 | 89 | 1014.0 |
| 20260507024613 | 8 | 0 | 0.0 | 3.2 | 0.00 | 0.05 | 0.00 | 89 | 1014.0 |
| 20260507023051 | 8 | 0 | 0.0 | 0.0 | 0.00 | 0.05 | 0.00 | 89 | 1014.0 |
| 20260507021551 | 8 | 0 | 0.0 | 1.6 | 0.00 | 0.05 | 0.00 | 89 | 1013.9 |
| 20260507020107 | 8 | 0 | 0.0 | 6.4 | 0.00 | 0.05 | 0.00 | 89 | 1013.9 |
| 20260507014603 | 8 | 0 | 0.0 | 3.2 | 0.00 | 0.08 | 0.00 | 89 | 1013.8 |
| 20260507013053 | 8 | 0 | 0.0 | 1.6 | 0.00 | 0.08 | 0.00 | 89 | 1013.7 |
| 20260507011551 | 8 | 276 | 0.0 | 6.4 | 0.00 | 0.08 | 0.00 | 88 | 1013.8 |
| 20260507010053 | 8 | 0 | 0.0 | 4.8 | 0.00 | 0.08 | 0.00 | 89 | 1013.7 |
| 20260507004549 | 8 | 0 | 0.0 | 4.8 | 0.00 | 0.10 | 0.00 | 89 | 1013.6 |
| 20260507003053 | 8 | 0 | 0.0 | 4.8 | 0.00 | 0.10 | 0.00 | 89 | 1013.6 |
| 20260507001557 | 8 | 0 | 0.0 | 3.2 | 0.00 | 0.10 | 0.00 | 88 | 1013.6 |
| 20260507000053 | 7 | 0 | 0.0 | 4.8 | 0.00 | 0.10 | 0.00 | 88 | 1013.6 |
| 20260506234600 | 7 | 0 | 0.0 | 4.8 | 0.00 | 0.15 | 0.00 | 88 | 1013.8 |
| 20260506233057 | 7 | 0 | 0.0 | 6.4 | 0.00 | 0.15 | 0.00 | 88 | 1013.6 |
| 20260506231557 | 8 | 309 | 0.0 | 6.4 | 0.00 | 0.15 | 0.00 | 87 | 1013.5 |
| 20260506230058 | 8 | 273 | 0.0 | 9.7 | 0.00 | 0.15 | 0.00 | 87 | 1013.6 |
| 20260506224555 | 8 | 0 | 0.0 | 6.4 | 0.00 | 0.18 | 0.00 | 87 | 1013.5 |
| 20260506223059 | 8 | 0 | 0.0 | 4.8 | 0.00 | 0.18 | 0.00 | 86 | 1013.3 |
| 20260506221551 | 8 | 279 | 0.0 | 4.8 | 0.00 | 0.18 | 0.00 | 85 | 1013.3 |
| 20260506220055 | 8 | 297 | 0.0 | 6.4 | 0.00 | 0.18 | 0.00 | 84 | 1013.1 |
| 20260506214553 | 8 | 0 | 0.0 | 3.2 | 0.00 | 0.25 | 0.18 | 83 | 1013.2 |
| 20260506213113 | 8 | 274 | 0.0 | 6.4 | 0.00 | 0.25 | 0.18 | 82 | 1013.1 |
| 20260506211611 | 9 | 0 | 0.0 | 3.2 | 0.00 | 0.25 | 0.18 | 82 | 1013.0 |
| 20260506210100 | 9 | 295 | 0.0 | 1.6 | 0.00 | 0.25 | 0.18 | 82 | 1013.1 |
| 20260506204558 | 9 | 0 | 0.0 | 3.2 | 0.00 | 0.30 | 0.18 | 80 | 1013.0 |
| 20260506203052 | 9 | 0 | 0.0 | 3.2 | 0.00 | 0.30 | 0.18 | 80 | 1012.9 |
| 20260506201600 | 10 | 281 | 0.0 | 3.2 | 0.00 | 0.30 | 0.18 | 80 | 1012.8 |
| 20260506200058 | 10 | 0 | 0.0 | 6.4 | 0.00 | 0.30 | 0.18 | 79 | 1012.6 |
| 20260506194558 | 10 | 0 | 0.0 | 4.8 | 0.00 | 0.30 | 0.18 | 78 | 1012.4 |
| 20260506193050 | 10 | 286 | 0.0 | 3.2 | 0.00 | 0.30 | 0.18 | 78 | 1012.1 |
| 20260506191552 | 10 | 289 | 0.0 | 8.0 | 0.00 | 0.30 | 0.18 | 77 | 1012.0 |
| 20260506190051 | 11 | 272 | 0.0 | 6.4 | 0.00 | 0.30 | 0.18 | 76 | 1011.8 |
| 20260506184604 | 11 | 289 | 0.0 | 6.4 | 0.00 | 0.30 | 0.18 | 75 | 1011.7 |
| 20260506183100 | 11 | 360 | 0.0 | 9.7 | 0.00 | 0.30 | 0.18 | 75 | 1011.6 |
| 20260506181554 | 11 | 294 | 0.0 | 11.3 | 0.00 | 0.30 | 0.18 | 75 | 1011.3 |
| 20260506180055 | 11 | 0 | 0.0 | 11.3 | 0.00 | 0.30 | 0.18 | 75 | 1011.0 |
| 20260506174551 | 12 | 0 | 0.0 | 6.4 | 0.00 | 0.30 | 0.18 | 74 | 1010.9 |
| 20260506173054 | 12 | 0 | 0.0 | 4.8 | 0.00 | 0.30 | 0.18 | 73 | 1010.9 |
| 20260506171556 | 12 | 278 | 0.0 | 8.0 | 0.00 | 0.30 | 0.18 | 71 | 1010.7 |
| 20260506170109 | 12 | 9 | 1.6 | 11.3 | 0.00 | 0.30 | 0.18 | 70 | 1010.7 |
| 20260506164551 | 13 | 275 | 1.6 | 9.7 | 0.00 | 0.33 | 0.18 | 70 | 1010.6 |
| 20260506163109 | 13 | 275 | 1.6 | 11.3 | 0.00 | 0.33 | 0.18 | 70 | 1010.5 |
| 20260506161550 | 12 | 0 | 0.0 | 8.0 | 0.00 | 0.33 | 0.18 | 69 | 1010.6 |
| 20260506160052 | 12 | 0 | 0.0 | 12.9 | 0.00 | 0.33 | 0.18 | 70 | 1010.5 |
| 20260506154552 | 12 | 0 | 0.0 | 14.5 | 0.00 | 0.36 | 0.18 | 72 | 1010.5 |
| 20260506153051 | 12 | 309 | 1.6 | 6.4 | 0.00 | 0.36 | 0.18 | 71 | 1010.6 |
| 20260506151549 | 12 | 0 | 0.0 | 6.4 | 0.00 | 0.36 | 0.18 | 72 | 1010.6 |
| 20260506150055 | 12 | 273 | 1.6 | 11.3 | 0.00 | 0.36 | 0.18 | 70 | 1010.5 |
| 20260506144601 | 12 | 296 | 0.0 | 6.4 | 0.00 | 0.51 | 0.18 | 71 | 1010.6 |
| 20260506143055 | 12 | 0 | 1.6 | 6.4 | 0.00 | 0.51 | 0.18 | 69 | 1010.6 |
| 20260506141553 | 13 | 279 | 1.6 | 14.5 | 0.00 | 0.51 | 0.18 | 67 | 1010.4 |
| 20260506140048 | 13 | 263 | 0.0 | 11.3 | 0.00 | 0.51 | 0.18 | 67 | 1010.3 |
| 20260506134552 | 13 | 243 | 1.6 | 14.5 | 0.00 | 0.56 | 0.18 | 66 | 1010.4 |
| 20260506133048 | 13 | 34 | 1.6 | 11.3 | 0.00 | 0.56 | 0.18 | 68 | 1010.4 |
| 20260506131551 | 13 | 262 | 1.6 | 16.1 | 0.00 | 0.56 | 0.18 | 67 | 1010.5 |
| 20260506130059 | 13 | 0 | 1.6 | 12.9 | 0.00 | 0.56 | 0.18 | 66 | 1010.4 |
| 20260506124550 | 13 | 271 | 3.2 | 14.5 | 0.00 | 0.56 | 0.18 | 67 | 1010.2 |